Location: Unspecified
(40.7945°N, 0.0000°E)
Time: 06:13:15
(UTC+00:00)

A-11 Canister half - Pass Details

Date: 23 January 2021
Orbit: 1516 x 1684 km, 47.2° (Epoch: 07 March)

Event Time Altitude Azimuth Distance (km) Brightness Sun altitude
Rises 17:16:12 0° 167° (SSE) 4,785 11.7 -2.5°
Reaches altitude 10° 17:23:06 10° 133° (SE) 3,757 10.8 -3.7°
Maximum altitude 17:24:56 11° 122° (ESE) 3,693 10.7 -4.0°
Drops below altitude 10° 17:26:45 10° 110° (ESE) 3,737 10.6 -4.3°
Enters shadow 17:31:22 - 85° (E) 4,288 10.7 -5.1°
Sets 17:33:26 0° 76° (ENE) 4,689 - -5.5°
